Weather in Kharabali

Russia / Astrakhan Oblast     47°24′33″N   47°15′07″E
temp.,
°C
wind,
m/s
gust,
m/s
humid.,
%
clouds,
%
prec.,
mm/h
press.,
hPa
HPBL,
m
24 july, sat
sat2401:00+25ne2355100 0.0 1006133
04:00+23nne335524 0.0 100743
07:00+24nne245284 0.0 1008197
10:00+27nnw333990 0.0 10091066
13:00+30nnw45289 0.0 10102940
16:00+31nnw75237 0.0 10093077
19:00+30n44252 0.0 10101662
22:00+26nne33311 0.0 101219
25 july, sun
sun2501:00+24n34341 0.0 101355
04:00+22ne35450 0.0 101473
07:00+23nne47460 0.0 1016238
10:00+29nne44300 0.0 10171112
13:00+31n44260 0.0 10172631
16:00+32n44240 0.0 10162914
19:00+31n54260 0.0 10171741
22:00+26ne48300 0.0 1018154
26 july, mon
mon2601:00+25ne47330 0.0 1019117
04:00+23ene410360 0.0 1019200
07:00+24ene49370 0.0 1020284
10:00+30ene67250 0.0 10201667
13:00+32ne77220 0.0 10202472
16:00+32ne77210 0.0 10192602
19:00+30ne67230 0.0 10191287
22:00+26ene48271 0.0 1019136
27 july, tue
tue2701:00+24ene41029100 0.0 1019159
04:00+23ene4630100 0.0 101983
07:00+24ene4832100 0.0 1019237
10:00+29ene462268 0.0 10191497
13:00+31nne67221 0.0 10182589
16:00+32nne662243 0.0 10173075
19:00+30n6825100 0.0 10171385
22:00+26n473093 0.0 1017133
28 july, wed
wed2801:00+24nne41029100 0.0 1017228
04:00+23nne4933100 0.0 1017190
07:00+23n4936100 0.0 1017344
10:00+28ne66240 0.0 10171871
13:00+30nne55210 0.0 10163052
16:00+31nne55211 0.0 10153336
19:00+30nne452323 0.0 10152043
22:00+28ene36257 0.0 1015133